Location: Bennemühlen
(52.5740°N, 9.7135°E)
Time: 21:40:53
(UTC+00:00)

Meteor 1-14 Rocket - Pass Details

Date: 19 May 2025
Orbit: 833 x 917 km, 81.3° (Epoch: 15 June)

Event Time Altitude Azimuth Distance (km) Brightness Sun altitude
Rises 21:11:33 0° 346° (NNW) 3,407 9.0 -12.5°
Reaches altitude 10° 21:13:57 10° 346° (NNW) 2,475 7.9 -12.6°
Maximum altitude 21:19:34 88° 261° (W) 862 4.2 -13.0°
Enters shadow 21:24:00 17° 170° (S) 2,025 5.6 -13.4°
